Change the Weather History Date:

Monday, August 11, 2014

  Actual Average (KPRN) Record (KPRN)
Temperature  
Mean Temperature 82 °F -  
Max Temperature 93 °F 90 °F 100 °F (1954)
Min Temperature 73 °F 68 °F 62 °F (1976)
Cooling Degree Days 17    
Growing Degree Days 32 (Base 50)    
Moisture  
Dew Point 74 °F    
Average Humidity 82    
Maximum Humidity 100    
Minimum Humidity 55    
Precipitation  
Precipitation 0.05 in - - ()
Sea Level Pressure  
Sea Level Pressure 30.00 in    
Wind  
Wind Speed 2 mph (West)    
Max Wind Speed 7 mph    
Max Gust Speed -    
Visibility 8 miles    
Events Fog , Rain    
Averages and records for this station are not official NWS values.
T = Trace of Precipitation, MM = Missing Value Source: NWS Daily Summary

Daily Weather History Graph

Daily Weather History Graph

Search for Another Location

Airport or City:

Trip Planner

Search our weather history database for the weather conditions in past years. The results will help you decide how hot, cold, wet, or windy it might be!

Date:

Astronomy

Aug. 11, 2014 Rise Set
Actual Time 6:11 AM CDT 7:35 PM CDT
Civil Twilight 5:45 AM CDT 8:00 PM CDT
Nautical Twilight 5:14 AM CDT 8:31 PM CDT
Astronomical Twilight 4:42 AM CDT 9:03 PM CDT
Moon 8:12 PM CDT (8/11) 7:08 AM CDT (8/11)
Length of Visible Light 14h 15m
Length of Day
13h 24m
Full, 99% of the Moon is Illuminated
Aug 11
Full
Aug 17
Last Quarter
Aug 25
New
Sep 2
First Quarter
Sep 8
Full

Hourly Weather History & Observations

Time (CDT) Temp. Heat Index Dew Point Humidity Pressure Visibility Wind Dir Wind Speed Gust Speed Precip Events Conditions
12:53 AM 75.0 °F - 73.0 °F 94% 29.98 in 9.0 mi Calm Calm - 0.05 in Rain Light Rain
1:53 AM 75.0 °F - 73.0 °F 94% 29.96 in 10.0 mi South 3.5 mph - 0.00 in   Partly Cloudy
2:53 AM 75.0 °F - 73.0 °F 94% 29.96 in 10.0 mi Calm Calm - N/A   Clear
3:53 AM 75.0 °F - 73.0 °F 94% 29.98 in 8.0 mi Calm Calm - N/A   Clear
4:02 AM 75.0 °F - 73.0 °F 94% 29.99 in 9.0 mi Calm Calm - N/A   Partly Cloudy
4:22 AM 73.9 °F - 72.0 °F 93% 29.99 in 7.0 mi Calm Calm - N/A   Mostly Cloudy
4:37 AM 73.9 °F - 72.0 °F 93% 29.99 in 1.8 mi Calm Calm - N/A   Overcast
4:48 AM 73.4 °F - 73.4 °F 100% 29.99 in 0.8 mi Calm Calm - N/A   Overcast
4:53 AM 73.9 °F - 73.0 °F 97% 29.98 in 1.2 mi Calm Calm - N/A   Overcast
5:33 AM 73.9 °F - 73.0 °F 97% 30.00 in 0.8 mi Calm Calm - N/A   Mist
5:41 AM 73.9 °F - 73.0 °F 97% 30.00 in 1.0 mi Calm Calm - N/A   Mist
5:53 AM 73.9 °F - 73.0 °F 97% 29.99 in 1.0 mi Calm Calm - N/A   Overcast
6:16 AM 73.9 °F - 72.0 °F 93% 30.00 in 0.8 mi SW 3.5 mph - N/A   Overcast
6:53 AM 73.9 °F - 73.0 °F 97% 30.01 in 0.5 mi Variable 3.5 mph - N/A Fog Fog
7:11 AM 73.9 °F - 73.0 °F 97% 30.03 in 2.0 mi Variable 3.5 mph - N/A   Overcast
7:19 AM 73.9 °F - 73.0 °F 97% 30.03 in 5.0 mi Variable 3.5 mph - N/A   Overcast
7:53 AM 75.0 °F - 73.0 °F 94% 30.03 in 6.0 mi Variable 3.5 mph - N/A   Overcast
8:22 AM 75.9 °F - 73.9 °F 94% 30.04 in 6.0 mi Calm Calm - N/A   Overcast
8:53 AM 78.1 °F - 73.9 °F 87% 30.04 in 9.0 mi Calm Calm - N/A   Overcast
9:02 AM 78.1 °F - 73.9 °F 87% 30.05 in 10.0 mi Calm Calm - N/A   Overcast
9:36 AM 79.0 °F - 73.0 °F 82% 30.04 in 10.0 mi Calm Calm - N/A   Scattered Clouds
9:53 AM 80.1 °F 84.5 °F 73.9 °F 81% 30.04 in 10.0 mi WSW 3.5 mph - N/A   Partly Cloudy
10:34 AM 82.0 °F 87.9 °F 73.9 °F 76% 30.05 in 10.0 mi Variable 3.5 mph - N/A   Mostly Cloudy
10:42 AM 81.0 °F 85.8 °F 73.0 °F 77% 30.05 in 10.0 mi Variable 3.5 mph - N/A   Mostly Cloudy
10:53 AM 84.0 °F 91.2 °F 73.9 °F 72% 30.04 in 10.0 mi Variable 3.5 mph - N/A   Mostly Cloudy
11:17 AM 86.0 °F 93.0 °F 73.0 °F 65% 30.04 in 10.0 mi NNE 3.5 mph - N/A   Scattered Clouds
11:24 AM 86.0 °F 93.8 °F 73.9 °F 67% 30.04 in 10.0 mi Variable 3.5 mph - N/A   Mostly Cloudy
11:34 AM 86.0 °F 93.8 °F 73.9 °F 67% 30.03 in 10.0 mi North 5.8 mph - N/A   Scattered Clouds
11:45 AM 87.1 °F 95.4 °F 73.9 °F 65% 30.03 in 10.0 mi North 4.6 mph - N/A   Mostly Cloudy
11:53 AM 86.0 °F 93.0 °F 73.0 °F 65% 30.02 in 10.0 mi Variable 3.5 mph - N/A   Mostly Cloudy
12:25 PM 89.1 °F 98.0 °F 73.9 °F 61% 30.02 in 10.0 mi NNW 4.6 mph - N/A   Mostly Cloudy
12:53 PM 89.1 °F 98.0 °F 73.9 °F 61% 30.00 in 10.0 mi Variable 3.5 mph - N/A   Mostly Cloudy
1:53 PM 90.0 °F 97.9 °F 73.0 °F 57% 29.97 in 10.0 mi Calm Calm - N/A   Scattered Clouds
2:53 PM 90.0 °F 97.9 °F 73.0 °F 57% 29.96 in 10.0 mi Variable 6.9 mph - N/A   Scattered Clouds
3:53 PM 90.0 °F 99.0 °F 73.9 °F 59% 29.94 in 10.0 mi WSW 4.6 mph - N/A   Scattered Clouds
4:53 PM 91.0 °F 99.3 °F 73.0 °F 55% 29.94 in 10.0 mi Calm Calm - N/A   Partly Cloudy
5:53 PM 89.1 °F 99.1 °F 75.0 °F 63% 29.91 in 10.0 mi WSW 4.6 mph - N/A   Clear
6:53 PM 88.0 °F 97.5 °F 75.0 °F 65% 29.90 in 10.0 mi West 4.6 mph - N/A   Clear
7:53 PM 82.0 °F 90.2 °F 77.0 °F 85% 29.93 in 10.0 mi Calm Calm - N/A   Clear
8:53 PM 81.0 °F 88.6 °F 78.1 °F 91% 29.93 in 9.0 mi Calm Calm - N/A   Clear
9:53 PM 81.0 °F 86.7 °F 75.0 °F 82% 29.96 in 10.0 mi Calm Calm - N/A   Clear
10:53 PM 80.1 °F 84.2 °F 73.0 °F 79% 29.96 in 10.0 mi Variable 3.5 mph - N/A   Clear
11:53 PM 78.1 °F - 73.0 °F 84% 29.96 in 10.0 mi Calm Calm - N/A   Clear